NOAA 16 DEB, 41353

Orbit data source: Space-Track

NOAA 16 DEB, 41353 is space debris in SSO originally from a launch on Thu, 21 Sep 2000 UTC launched from the Air Force Western Test Range (AFWTR). Debris objects in space refer to the collection of defunct objects orbiting the Earth. Examples of debris include non-operational satellites, rocket bodies, and fragments generated from explosions, collisions, or faulty payload assembly.

Loading next visibility...
Identifier
41353, 2000-055HW
Orbit
SSO
Country
Flag of USUS
Related business
Manufacturer
Unknown
Mission
Spacecraft
Bus & Motor
Unknown
Mass
Unknown
Launch date (UTC)
2000-09-21 (26 years ago)
Launch vehicle
Unknown
Launch site
Air Force Western Test Range (AFWTR)
Object type
Payload
Rocket body
Debris
Shape & HBR
Unknown shape, 0.1 m
Radar Cross Section
Medium (>0.1 m² and <1 m²)

Expand to show TLE details & history
Last TLE update: 1 week ago

TLE from 1 week ago
0 NOAA 16 DEB
1 41353U 00055HW  26153.98391082  .00003447  00000-0  14648-2 0  9996
2 41353  98.6875 220.9841 0025994 112.2550 248.1390 14.25733599533952
Epoch: 2026-06-02T23:36Z
TLE epoch observation values (Epoch: 2026-06-02T23:36:49.894Z)
Latitude
-0.00006°
Longitude
-24.67283°
Altitude
815.947 km
Speed
7.442 km/s
True Right ascension
14h 43m 56s
True Declination
0° 00' 00"
Sunlit
Object was in full shadow at epoch
Visualization orbit readout
Latitude
Unknown
Longitude
Unknown
Altitude
Unknown
Speed
Unknown
Apparent Right ascension
Unknown
Apparent Declination
Unknown
Sunlit
N/A
Visualization observer readout
Local Sidereal Time
06:09:11
Azimuth
Unknown
Elevation
Unknown
Doppler factor
Unknown
Orbital elements
Apogee altitude
821.844 km
Perigee altitude
784.51 km
Semi-major axis
7,181.314 km
Eccentricity
0.0026
Inclination
98.6875°
RAAN
220.9841°
Arg. of periapsis
112.255°
True anomaly
247.86289°
Mean anomaly
248.139°
Eccentric anomaly
248.00091°
Mean motion
3.56646 °/min
Orbital period
100.94 mins
BSTAR
0.0014648
Loading maneuver chart data...
Computing Atmospheric mass density...
Loading historical data...
Loading historical data...
Loading historical data...
Loading historical data...
Loading historical data...
Loading historical data...
Loading historical data...

Documentation

Showing up to 5 results
|